Location: Fours
(44.3167°N, 6.7000°E)
Time: 05:46:33
(UTC+00:00)

Cosmos 2218 Rocket - Pass Details

Date: 30 May 2022
Orbit: 956 x 1005 km, 82.9° (Epoch: 03 July)

Event Time Altitude Azimuth Distance (km) Brightness Sun altitude
Rises 01:44:16 0° 356° (N) 3,677 7.9 -17.2°
Reaches altitude 10° 01:46:53 10° 2° (N) 2,733 7.2 -17.0°
Maximum altitude 01:52:56 49° 76° (ENE) 1,254 4.9 -16.4°
Drops below altitude 10° 01:59:01 10° 151° (SSE) 2,749 6.1 -15.7°
Sets 02:01:38 0° 157° (SSE) 3,700 6.7 -15.5°
